Regional Weather Roundup
Issued by NWS Upton, NY

Current Version | Previous Version | Graphics & Text | Print | Product List | Glossary Off
Versions: 1 2 3 4 5 6 7 8 9 10 11 12 13 14 15 16 17 18 19 20 21 22 23 24 25 26 27 28 29 30 31 32 33 34 35 36 37 38 39 40 41 42 43 44 45 46 47 48 49 50

000
ASUS41 KOKX 071208
RWROKX

REGIONAL WEATHER ROUNDUP
NATIONAL WEATHER SERVICE NEW YORK NY
800 AM EDT TUE JUL 07 2015

NOTE: "FAIR" INDICATES FEW OR NO CLOUDS BELOW 12,000 FEET WITH NO
SIGNIFICANT WEATHER AND/OR OBSTRUCTIONS TO VISIBILITY.

NYZ071-072-176-178-NJZ106-104-071300-
NEW YORK CITY METRO AREA


CITY           SKY/WX    TMP DP  RH WIND       PRES   REMARKS
CENTRAL PARK   CLOUDY    78  71  79 CALM      30.07S
LAGUARDIA APRT PTSUNNY   77  71  82 S8        30.04S
KENNEDY INTL   CLOUDY    76  72  87 S10       30.06S
NEWARK/LIBERTY PTSUNNY   78  73  84 S6        30.04S
BRNX BOT. GARD   N/A     77  72  83 SE5       30.06R
TETERBORO      CLOUDY    78  71  79 S8        30.03S
$$

NYZ177-179-078>081-071300-
LONG ISLAND NEW YORK

CITY           SKY/WX    TMP DP  RH WIND       PRES   REMARKS
FARMINGDALE    CLOUDY    76  73  91 S9        30.06S
ISLIP          CLOUDY    75  72  90 S8        30.05S
SHIRLEY        CLOUDY    75  73  93 S8        30.08S
WESTHAMPTON    CLOUDY    74  74 100 S6        30.09S
MONTAUK POINT    N/A     73  72  96 VRB3      30.10F
$$

NYZ052-065-067-071300-
HUDSON VALLEY

CITY           SKY/WX    TMP DP  RH WIND       PRES   REMARKS
WHITE PLAINS   PTSUNNY   75  72  90 S6        30.06S
NEWBURGH       PTSUNNY   73  72  94 VRB6      30.06F
MONTGOMERY       N/A    N/A N/A N/A MISG      30.04S
POUGHKEEPSIE   CLOUDY    76  70  82 SE6       30.03F
ALBANY         PTSUNNY   75  67  76 S9        30.03F
$$

NJZ001-105-106-008-010-013-015-019>022-104-071300-
NEW JERSEY

CITY           SKY/WX    TMP DP  RH WIND       PRES   REMARKS
NEWARK/LIBERTY PTSUNNY   78  73  84 S6        30.04S
TETERBORO      CLOUDY    78  71  79 S8        30.03S
CALDWELL       PTSUNNY   77  70  79 S7        30.04S
MORRISTOWN     CLOUDY    81  77  89 S5        30.04S HAZE
SOMERVILLE     CLOUDY    76  72  87 VRB3      30.02S
SUSSEX         CLOUDY    76  70  82 CALM      30.04S
ANDOVER          N/A     75  70  84 CALM      30.05S
TRENTON        PTSUNNY   76  73  91 S6        30.03S
MILLVILLE      MOSUNNY   79  74  84 VRB5      30.05S
ATLANTIC CITY  NOT AVBL
WRIGHTSTOWN    PTSUNNY   78  75  91 SW8       30.02S
TOMS RIVER     PTSUNNY   79  73  83 SW6       30.06S
BELMAR         PTSUNNY   77  70  78 SW7       30.06R
$$

PAZ047>061-062-071-071300-
EASTERN PENNSYLVANIA

CITY           SKY/WX    TMP DP  RH WIND       PRES   REMARKS
PHILADELPHIA   PTSUNNY   78  72  81 SW8       30.05R
ALLENTOWN      CLOUDY    76  71  85 SW7       30.04R
SCRANTON       PTSUNNY   76  72  87 CALM      30.04S
$$

CTZ002-004>006-009-010-012-RIZ004-006-007-MAZ004-011-015-071300-
SOUTHERN NEW ENGLAND
 IN CT

CITY           SKY/WX    TMP DP  RH WIND       PRES   REMARKS
BRADLEY INTL   DRIZZLE   70  68  93 SE5       30.08R FOG
HARTFORD       CLOUDY    71  69  93 SE8       30.07S
DANBURY        CLOUDY    72  68  87 SE8       30.07F FOG
WTRBRY/OXFORD  FOG       72  66  83 S6        30.10S VSB 3/4
BRIDGEPORT     CLOUDY    73  71  93 E7        30.06S
MERIDEN        CLOUDY    73  69  87 CALM      30.07S
NEW HAVEN      CLOUDY    72  70  93 SE6       30.07S FOG
CHESTER        FOG       70  70 100 CALM      30.10S VSB<1/4
GROTON         CLOUDY    71  69  93 SE7       30.08S FOG
WILLIMANTIC    FOG       70  68  93 CALM      30.10S VSB 1

 IN RI

CITY           SKY/WX    TMP DP  RH WIND       PRES   REMARKS
PROVIDENCE     CLOUDY    73  69  87 SE7       30.11S
BLOCK ISLAND   CLOUDY    73  70  88 S9        30.11S
WESTERLY       FOG       71  70  96 SE6       30.10F VSB 1

 IN MA

CITY           SKY/WX    TMP DP  RH WIND       PRES   REMARKS
BOSTON         PTSUNNY   69  66  90 SE5       30.11S
WORCESTER      CLOUDY    68  64  87 SE7       30.13S
WESTFIELD      CLOUDY    71  65  81 CALM      30.08S
PROVINCETOWN   CLOUDY    72  12  10 S12       30.14S
NANTUCKET      PTSUNNY   68  63  84 SE13      30.14S
$$

ANZ330-335-338-340-345-350-353-355-071300-
COASTAL MARINE OBSERVATIONS


STATION/POSITION TIME  SKY/WX   TEMP    WIND        PRES    VSBY  WAVE
                                AIR SEA DIR/SP/G                  HT/PER
                 (UTC)          (F)     (DEG/KT/KT) (MB)    (MI)  (FT/S)
NY HARB ENTRANCE 1150            74 72  180/ 10/ 12 1017.3          2/14
4S FIRE IS       1103               69                N/A           2/ 9
20S FIRE ISLAND  1150            72 70  190/ 10/ 10 1017.9          2/ 9
GREAT SOUTH BAY  1115            73 76  200/ 10/ 12   N/A
23SW MTP         1150            71 70  150/  6/  6 1018.6          2/ 7
HUDSON CANYON    NOT AVBL
KINGS POINT      1100            74 67  180/  4/  7 1016.8
CENTRAL LI SOUND NOT AVBL
EASTERN LI SOUND 1100            67 64  140/  8/  8   N/A
ROBBINS REEF     1100            73     180/  7/  8 1016.2
$$


>>>>>>>>>>>>>>>>>>>>>>>>>>>> KEY <<<<<<<<<<<<<<<<<<<<<<<<<<<
>                                                          <
>     SKY/WX - SKY CONDITION/PRESENT WEATHER               <
>     TMP    - TEMPERATURE IN FAHRENHEIT                   <
>     DP     - DEWPOINT IN FAHRENHEIT                      <
>     RH     - RELATIVE HUMIDITY IN PERCENT                <
>     WIND   - DIRECTION AND SPEED IN MPH                  <
>     PRES   - MEAN SEA LEVEL PRESSURE IN INCHES OF HG     <
>     WCI    - WIND CHILL INDEX                            <
>     VSB    - VISIBILITY IN MILES                         <
>     HX     - HEAT INDEX                                  <
>     TC     - TEMPERATURE IN CELSIUS                      <
>     VRB    - VARIABLE WIND DIRECTION                     <
>                                                          <
>>>>>>>>>>>>>>>>>>>>>>>>>>>> KEY <<<<<<<<<<<<<<<<<<<<<<<<<<<





USA.gov is the U.S. government's official web portal to all federal, state and local government web resources and services.